Location: Unspecified
(0.0000°N, 0.0000°E)
Time: 07:23:47
(UTC+00:00)

Courier 1B - Pass Details

Date: 25 September 2023
Orbit: 962 x 1208 km, 28.3° (Epoch: 06 December)

Event Time Altitude Azimuth Distance (km) Brightness Sun altitude
Rises 13:34:54 0° 296° (WNW) 4,062 11.1 64.2°
Reaches altitude 10° 13:41:33 10° 336° (NNW) 3,130 10.4 62.5°
Maximum altitude 13:42:29 10° 343° (NNW) 3,115 10.4 62.3°
Drops below altitude 10° 13:43:25 10° 350° (N) 3,133 10.3 62.1°
Sets 13:50:09 0° 30° (NNE) 4,089 10.6 60.4°
